NOAA 16 DEB, 41132

Orbit data source: Space-Track

NOAA 16 DEB, 41132 is space debris in SSO originally from a launch on Thu, 21 Sep 2000 UTC launched from the Air Force Western Test Range (AFWTR). Debris objects in space refer to the collection of defunct objects orbiting the Earth. Examples of debris include non-operational satellites, rocket bodies, and fragments generated from explosions, collisions, or faulty payload assembly.

Loading next visibility...
Identifier
41132, 2000-055BP
Orbit
SSO
Country
Flag of USUS
Related business
Manufacturer
Unknown
Mission
Spacecraft
Bus & Motor
Unknown
Mass
Unknown
Launch date (UTC)
2000-09-21 (25 years ago)
Launch vehicle
Unknown
Launch site
Air Force Western Test Range (AFWTR)
Object type
Payload
Rocket body
Debris
Shape & HBR
Unknown shape, 0.1 m
Radar Cross Section
Small (<0.1 m²)

Expand to show TLE details & history
Last TLE update: 3 days ago

TLE from 3 days ago
0 NOAA 16 DEB
1 41132U 00055BP  26070.69262081  .00015766  00000-0  30531-2 0  9999
2 41132  98.8590 243.7276 0027766 290.2493  69.5722 14.63146889535431
Epoch: 2026-03-11T16:37Z
TLE epoch observation values (Epoch: 2026-03-11T16:37:22.437Z)
Latitude
-0.00007°
Longitude
-174.96908°
Altitude
679.203 km
Speed
7.521 km/s
True Right ascension
16h 14m 54s
True Declination
0° 00' 00"
Sunlit
Object was in daylight at epoch
Visualization orbit readout
Latitude
Unknown
Longitude
Unknown
Altitude
Unknown
Speed
Unknown
Apparent Right ascension
Unknown
Apparent Declination
Unknown
Sunlit
N/A
Visualization observer readout
Local Sidereal Time
10:02:16
Azimuth
Unknown
Elevation
Unknown
Doppler factor
Unknown
Orbital elements
Apogee altitude
699.738 km
Perigee altitude
660.542 km
Semi-major axis
7,058.277 km
Eccentricity
0.00278
Inclination
98.859°
RAAN
243.7276°
Arg. of periapsis
290.2493°
True anomaly
69.87073°
Mean anomaly
69.5722°
Eccentric anomaly
69.72143°
Mean motion
3.66012 °/min
Orbital period
98.36 mins
BSTAR
0.0030531
Loading maneuver chart data...
Computing Atmospheric mass density...
Loading historical data...
Loading historical data...
Loading historical data...
Loading historical data...
Loading historical data...
Loading historical data...
Loading historical data...

Documentation

Showing up to 5 results
|